Flag for Morocco Weather past 2 weeks in Marrakech, Morocco

Now
63 °F

Clear.


Feels Like: 63 °F
Forecast: 60 / 80 °F
Wind: 5 mph from Southwest

Location: Marrakech Airport


UV Index: 7 (High)

Visibility: 10 mi


Pressure: 30.01 "Hg

Humidity: 77%

Dew point: 55 °F

Location of MarrakechLocation

Historic Weather in Marrakech

°F

Marrakech temperature yesterday

Maximum temperature yesterday: 84 °F (at 5:30 PM)
Minimum temperature yesterday: 55 °F (at 7:00 AM)
Average temperature yesterday: 70 °F

Past Weeks' High & Low Weather Summary

 TemperatureHumidityPressure
High95 °F (Apr 8, 2:30 PM)100% (Apr 2, 1:30 PM)30.18 "Hg (Apr 2, 1:30 PM)
Low48 °F (Apr 3, 5:30 AM)11% (Apr 7, 4:00 PM)29.68 "Hg (Apr 2, 1:30 AM)
Average72 °F50%29.97 "Hg
* Reported Apr 2 1:00 AM — Apr 17 1:30 AM, Marrakech, Weather by CustomWeather, © 2014

Note: Actual official high and low records may vary slightly from our data, if they occured in-between our weather recording intervals... More about our weather records

Advertising

Historic Weather Conditions — Data for Previous 24 hours

 ConditionsComfort  
Time TempWeatherWind HumidityBarometerVisibility
1:30 AM
Apr 17
63 °FClear.5 mph77%30.01 "Hg10 mi
1:00 AM63 °FClear.3 mph77%30.01 "Hg10 mi
12:30 AM64 °FClear.3 mph73%30.01 "Hg10 mi
12:00 AM66 °FClear.6 mph68%30.01 "Hg10 mi
11:30 PM
Apr 16
68 °FClear.2 mph64%30.01 "Hg10 mi
11:00 PM68 °FPassing clouds.7 mph64%30.01 "HgN/A
10:30 PM70 °FPassing clouds.12 mph60%30.01 "HgN/A
10:00 PM70 °FClear.12 mph60%30.01 "Hg10 mi
9:30 PM72 °FPassing clouds.14 mph57%29.98 "HgN/A
9:00 PM73 °FPassing clouds.15 mph53%29.98 "HgN/A
8:30 PM77 °FPassing clouds.13 mph47%29.98 "HgN/A
8:00 PM82 °FPassing clouds.2 mph32%29.95 "HgN/A
7:30 PM82 °FPassing clouds.3 mph32%29.95 "HgN/A
7:00 PM84 °FPassing clouds.5 mph31%29.95 "HgN/A
6:30 PM84 °FClear.7 mph35%29.95 "Hg5 mi
6:00 PM84 °FClear.3 mph35%29.92 "Hg4 mi
5:30 PM84 °FClear.6 mph35%29.92 "Hg5 mi
5:00 PM82 °FClear.7 mph35%29.92 "Hg5 mi
4:30 PM82 °FClear.5 mph35%29.95 "Hg6 mi
4:00 PM82 °FPassing clouds.8 mph37%29.95 "HgN/A
3:30 PM81 °FPassing clouds.8 mph39%29.98 "HgN/A
3:00 PM81 °FSunny.6 mph42%29.98 "Hg10 mi
2:30 PM79 °FPassing clouds.6 mph42%30.01 "HgN/A
2:00 PM77 °FPassing clouds.8 mph47%30.01 "HgN/A
1:30 PM75 °FSunny.3 mph50%30.01 "Hg10 mi
1:00 PM73 °FSunny.3 mph53%30.04 "Hg10 mi
12:30 PM73 °FSunny.6 mph53%30.04 "Hg10 mi
12:00 PM72 °FPassing clouds.5 mph61%30.04 "HgN/A
11:30 AM70 °FSunny.7 mph64%30.04 "Hg10 mi
10:30 AM66 °FClear.3 mph68%30.04 "Hg4 mi
10:00 AM64 °FClear.6 mph73%30.04 "Hg4 mi
9:30 AM64 °FPassing clouds.6 mph73%30.04 "HgN/A
9:03 AM61 °FClear.1 mph88%30.04 "Hg3 mi
8:00 AM55 °FFog.3 mph100%30.04 "Hg2 mi
7:30 AM57 °FClear.3 mph94%30.01 "Hg2 mi
7:00 AM55 °FClear.3 mph94%30.01 "Hg4 mi
6:30 AM57 °FClear.6 mph94%30.01 "Hg6 mi
6:00 AM57 °FClear.3 mph94%30.01 "Hg10 mi
5:30 AM57 °FClear.5 mph94%30.01 "Hg10 mi
5:00 AM57 °FClear.5 mph94%30.01 "Hg10 mi
4:30 AM57 °FCool.6 mph94%30.01 "HgN/A
4:00 AM59 °FClear.7 mph82%30.01 "Hg10 mi
3:30 AM59 °FClear.5 mph82%30.01 "Hg10 mi
3:00 AM61 °FClear.7 mph77%30.01 "Hg10 mi
Weather by CustomWeather, © 2014

See weather overview